RH
57 54 52 50 50 51 53 54 51 50 45 40 39 37 33 29 28 29 32 32 31 32 32 32 34 36 38 40 42 42 40 43 45 44 42 43 44 46 50 46 45 46 48 50 50 49 49 50 50 50 50 50 51 51 52 53 53 53 54 54 54 54 53 52 52 54 53 51 50 48 47 46 47 49 47 46 47 47 47 47 47 48 48 48 50 51 51 51 51 49 48 46 44 43 43 41 40
55 53 53 49 49 51 52 52 46 43 42 42 42 40 36 32 30 29 30 31 30 31 29 28 32 33 35 36 38 39 41 45 43 41 43 40 40 44 47 46 45 45 46 49 51 50 50 51 51 51 51 51 51 49 50 51 51 51 51 52 52 52 51 51 52 53 52 51 50 48 47 47 47 48 48 47 47 47 47 47 48 47 47 48 48 50 51 51 52 50 49 48 47 45 45 44 43
53 52 52 50 50 52 55 52 42 37 40 44 43 41 39 36 33 31 30 30 31 31 29 28 30 29 30 32 34 37 41 43 40 39 43 40 38 41 41 41 44 45 46 49 52 51 51 51 50 50 50 51 51 50 49 50 50 50 50 49 50 50 50 51 52 53 52 50 49 47 47 48 49 49 49 49 49 48 48 47 47 48 48 49 49 49 49 50 52 52 51 52 51 48 46 45 45
52 51 50 51 53 54 57 53 46 41 38 42 43 41 42 38 34 32 32 32 31 31 30 29 30 28 29 34 34 36 37 39 39 36 39 39 37 38 36 36 39 41 44 47 49 48 48 48 47 47 48 48 49 49 48 48 50 50 50 50 49 49 49 51 53 53 51 51 48 47 47 48 49 50 51 51 51 51 50 49 48 49 50 50 50 49 49 50 52 53 54 54 53 50 47 46 46
53 52 51 52 54 53 54 52 49 45 37 39 41 40 42 40 36 33 33 34 33 31 31 31 32 30 31 35 35 36 35 36 38 35 34 36 35 34 34 34 36 38 41 45 46 45 45 45 46 45 46 46 47 47 47 47 47 49 50 50 50 50 50 51 52 53 51 50 49 48 47 48 48 50 52 53 53 52 51 51 50 50 51 50 50 50 49 50 51 53 53 53 52 49 47 46 46
53 52 52 53 53 51 52 50 48 47 39 37 36 38 41 40 38 34 33 34 32 32 31 32 34 34 34 35 35 36 35 33 35 34 31 32 32 30 29 30 34 36 39 43 43 43 44 44 44 46 46 46 46 46 46 47 47 47 49 50 50 51 51 51 52 53 52 50 50 49 49 48 49 50 51 52 54 54 54 53 53 52 52 51 50 50 49 48 49 50 50 51 50 49 47 46 45
51 50 51 51 50 49 52 49 48 48 41 36 33 35 38 39 39 34 34 35 34 34 33 33 34 36 36 36 37 37 37 32 31 30 29 29 30 29 27 27 31 34 37 40 41 41 43 43 44 45 45 45 44 44 44 46 47 48 48 49 50 52 52 52 52 52 52 51 51 50 51 51 51 51 51 52 54 56 56 56 56 55 55 54 54 53 52 51 49 49 49 50 50 51 49 47 46
49 46 48 48 46 46 47 46 46 45 39 37 33 33 36 38 40 36 35 35 36 36 36 36 35 37 37 37 40 40 38 34 31 30 30 30 30 30 28 27 28 30 35 38 39 40 41 41 43 44 43 43 42 43 43 44 46 48 48 49 50 51 52 52 53 53 54 53 52 52 52 52 52 52 52 52 52 54 55 57 57 57 57 58 58 58 56 55 54 53 51 51 51 52 52 50 48
48 44 43 44 44 42 43 42 41 40 37 38 34 34 35 37 40 38 37 37 38 38 39 39 38 40 38 40 43 41 38 36 34 34 33 33 32 32 31 30 28 27 31 36 37 38 39 40 41 43 42 41 41 41 42 43 44 46 47 48 50 51 51 52 54 54 55 55 54 53 52 52 52 53 52 51 51 52 53 55 56 57 57 57 57 58 57 57 57 56 54 53 51 50 52 52 50
48 43 40 41 43 41 41 40 39 38 36 37 36 35 35 37 40 40 40 39 40 41 40 40 41 42 40 43 46 42 39 37 37 37 38 38 37 35 33 32 30 28 29 33 37 38 39 39 40 40 41 40 40 41 42 43 44 45 45 47 49 50 50 51 53 54 54 54 54 54 52 52 53 53 52 52 51 51 51 53 54 55 55 55 55 55 55 56 56 56 55 53 52 50 50 50 50
46 41 38 40 41 40 39 38 38 39 36 37 37 35 35 36 39 41 41 40 41 43 42 42 46 46 43 44 46 42 39 39 40 41 42 42 41 38 37 36 34 31 31 33 37 39 39 40 40 40 40 41 41 42 43 43 44 45 45 47 48 48 49 49 51 52 52 53 53 54 53 54 55 56 55 54 53 52 52 52 52 53 55 55 56 56 55 56 56 56 55 55 55 53 50 48 48
44 41 38 37 38 38 38 37 36 38 38 37 35 35 35 35 38 40 41 42 43 45 44 44 48 48 47 46 47 45 41 40 41 43 46 46 44 41 39 39 38 35 33 35 39 41 41 41 41 41 42 42 43 44 44 44 46 47 46 47 47 47 47 47 48 49 49 50 51 52 53 55 56 56 56 55 54 53 52 52 51 52 54 57 57 57 57 57 57 57 57 57 56 55 54 50 48
43 40 38 35 36 37 36 35 33 39 40 36 33 34 35 35 38 40 41 44 44 45 45 47 49 48 50 48 49 49 43 41 42 45 47 48 47 43 41 41 41 40 37 38 41 42 43 42 42 42 43 44 46 47 48 49 50 50 48 47 48 48 48 48 47 47 48 49 51 51 52 53 54 54 55 55 54 53 53 52 51 51 53 56 57 58 58 58 59 58 59 59 59 58 56 54 50
40 36 35 35 36 37 35 34 33 39 40 37 35 35 37 38 38 39 41 44 43 44 46 49 48 49 52 49 51 51 45 41 41 44 46 47 47 45 44 43 44 45 44 44 45 45 45 45 44 43 44 46 48 51 53 54 54 51 50 50 49 50 50 50 50 50 50 52 54 55 55 55 54 54 55 55 54 54 53 52 52 51 51 52 55 57 59 60 60 61 62 63 63 61 59 57 54
37 33 34 35 36 36 33 33 33 36 38 37 39 37 39 38 37 38 40 43 44 44 48 49 45 45 48 47 50 51 46 42 40 43 44 45 46 47 47 46 47 47 48 48 50 50 48 48 48 46 47 48 48 51 53 54 56 53 50 49 48 49 50 50 51 51 51 53 55 57 58 58 59 59 58 57 55 55 53 53 52 52 51 52 53 55 58 61 61 63 65 65 64 63 62 60 57
34 31 33 35 34 34 33 31 31 35 37 37 40 39 40 37 36 37 38 42 45 46 46 46 42 40 40 41 46 50 47 43 42 44 44 42 43 45 47 48 48 49 49 49 50 50 49 51 51 49 50 51 49 51 55 57 57 54 50 47 46 47 48 48 48 50 51 52 54 56 57 59 60 61 61 60 58 57 55 54 54 54 54 53 54 55 57 60 61 63 64 63 63 64 63 61 60
32 31 33 34 33 32 32 30 30 36 37 37 40 39 40 38 36 37 37 41 43 42 41 41 40 37 37 38 42 49 49 44 43 44 44 43 43 44 45 48 48 48 50 48 48 48 50 55 52 49 51 52 52 54 56 60 59 55 50 47 47 49 49 50 49 50 51 51 53 55 56 57 58 59 59 59 57 56 55 55 56 58 58 55 56 57 58 60 61 61 62 62 62 64 63 61 61
32 32 31 30 29 27 27 27 28 33 35 37 39 38 39 37 37 38 38 40 39 39 39 39 39 38 39 39 40 47 48 45 44 43 44 46 48 47 45 47 48 49 50 48 48 46 50 55 50 49 51 49 51 53 52 57 60 57 53 49 48 51 53 54 51 52 53 54 55 56 57 57 57 57 56 57 55 54 55 56 58 60 62 61 60 60 60 61 61 61 61 61 61 62 61 61 61
31 31 29 27 25 21 20 24 28 32 35 36 37 37 37 37 36 37 39 40 38 39 40 38 39 40 40 39 40 45 46 46 46 42 42 46 49 50 47 47 47 48 50 49 47 45 50 52 48 48 49 46 48 51 50 53 56 56 55 52 49 50 53 54 52 53 54 55 57 58 59 59 58 58 56 56 56 56 55 58 59 59 62 66 66 64 62 61 61 60 60 61 60 60 60 60 61
29 28 25 25 22 16 17 25 29 31 33 35 36 35 37 37 36 35 38 38 36 38 38 37 40 41 39 39 40 43 45 46 47 44 43 44 46 49 50 49 48 47 49 49 48 46 48 49 47 47 46 44 46 49 52 54 54 54 54 51 49 49 50 51 52 53 54 55 57 58 58 59 59 59 58 57 58 57 55 57 59 60 63 69 72 70 68 65 64 62 59 60 59 59 60 60 61
23 22 19 18 18 17 21 26 28 29 31 34 33 33 35 35 34 34 33 33 34 35 32 32 37 39 38 40 40 42 45 46 47 45 44 46 46 47 48 49 48 47 49 49 47 47 46 47 47 47 46 44 43 45 49 53 53 54 54 50 47 47 49 50 52 54 55 55 56 57 58 58 57 57 58 59 59 59 56 55 57 61 63 68 72 71 69 68 68 65 61 60 58 59 61 60 60
16 16 14 14 16 20 24 26 28 27 27 29 29 31 35 34 32 29 27 28 30 30 28 27 30 34 37 39 40 42 44 47 49 47 46 47 47 47 47 49 48 48 50 49 47 47 47 47 46 46 46 44 42 42 45 48 51 54 55 51 49 49 51 53 53 55 57 57 57 57 58 58 57 57 57 58 59 60 59 57 57 61 63 65 68 68 67 65 64 63 63 62 59 58 61 60 59
13 12 11 13 16 20 24 25 26 25 25 26 26 28 31 31 30 27 25 26 26 26 27 27 27 30 34 36 38 42 45 46 48 48 46 45 46 47 46 47 49 49 50 50 49 49 48 48 48 46 46 45 43 42 43 46 48 50 50 52 54 53 54 55 54 55 56 59 60 60 59 57 57 57 56 57 57 58 60 61 59 60 61 62 64 65 64 61 60 60 62 65 63 60 60 59 59
11 11 12 14 17 19 24 24 24 26 27 25 23 25 28 31 31 29 27 27 28 28 28 29 29 29 32 33 35 41 46 46 46 48 46 44 45 46 45 45 46 48 49 49 48 49 48 49 48 48 46 45 44 42 41 45 46 46 48 52 56 56 55 54 54 53 54 57 59 60 60 58 58 58 57 56 55 55 57 60 60 61 60 60 60 62 62 60 59 60 62 65 66 64 61 59 59
10 11 11 14 17 20 24 25 26 28 27 26 27 29 31 33 34 34 33 31 30 30 28 31 33 32 33 34 35 37 43 47 48 48 46 44 43 44 45 45 45 47 47 48 45 45 46 47 47 46 46 45 44 43 40 41 43 46 51 54 56 57 55 53 55 56 56 57 57 58 59 58 59 57 56 55 55 55 55 57 60 62 63 62 60 59 60 60 59 61 64 65 66 68 66 64 63
11 11 11 15 20 24 25 25 28 29 28 29 31 32 33 33 34 35 34 32 30 28 27 29 33 35 36 37 37 36 40 45 49 51 48 45 45 45 46 46 44 44 45 44 41 40 41 43 43 42 42 42 43 41 38 40 42 45 51 55 57 57 55 56 54 55 57 58 59 59 58 58 58 57 56 53 53 56 57 57 59 61 63 64 62 59 59 61 60 61 65 66 66 69 70 70 68
11 12 15 19 24 27 27 27 28 29 30 32 33 34 35 34 35 34 30 29 27 25 27 28 30 34 37 38 38 37 39 42 47 51 51 51 50 49 46 44 42 43 45 44 41 41 41 42 41 41 40 40 40 39 38 42 45 47 50 52 54 54 55 56 54 54 57 57 56 58 59 60 59 57 57 55 54 57 58 58 59 60 63 65 65 63 61 61 61 61 63 65 66 69 72 75 74
12 14 19 23 24 25 28 31 29 28 31 34 34 36 38 38 37 34 28 27 27 25 27 27 30 34 36 37 36 36 37 41 43 45 49 51 50 48 45 42 43 46 47 44 43 43 43 42 41 40 39 38 37 38 41 45 47 49 49 50 51 52 53 55 55 56 57 56 54 54 55 58 59 56 56 55 54 56 57 56 56 57 60 64 67 66 64 61 61 62 64 64 65 67 70 75 79
13 15 21 24 24 25 29 32 31 30 34 34 34 38 43 43 39 35 31 29 28 26 27 29 32 35 35 35 36 34 34 37 39 40 44 47 45 44 43 43 46 48 48 45 44 43 42 41 41 39 37 35 36 40 45 46 45 46 46 45 47 52 55 55 54 53 52 52 52 53 52 54 57 54 52 52 52 55 56 54 54 54 54 59 65 67 65 63 62 63 65 66 65 66 67 69 74
14 15 20 24 25 26 28 33 33 33 35 32 33 42 48 45 38 35 34 32 30 27 27 29 32 33 34 36 36 34 33 35 38 39 41 43 43 43 43 44 47 49 50 48 45 42 40 40 40 41 39 38 40 47 49 47 46 46 44 44 48 54 57 57 57 53 50 49 51 56 56 53 54 54 53 51 50 53 54 52 53 53 52 55 60 64 65 65 64 64 64 66 67 66 66 66 68
16 17 21 25 27 28 28 33 36 36 35 31 35 45 49 45 38 36 37 35 31 30 29 29 30 30 30 34 34 33 33 35 38 39 40 41 42 44 44 43 44 47 49 47 42 38 40 44 45 44 44 43 43 45 47 47 48 48 48 51 55 57 58 62 63 58 53 53 55 59 61 57 52 51 54 53 50 52 53 52 53 53 52 53 56 59 61 64 65 65 64 64 68 68 68 68 67
20 20 23 27 29 30 30 33 37 36 35 35 37 44 47 44 39 37 38 38 33 31 32 30 29 30 30 32 33 33 34 36 39 39 38 42 45 46 45 42 41 41 43 44 42 40 42 47 51 50 48 45 45 46 47 48 48 49 51 54 55 52 51 56 59 58 57 59 61 59 60 63 57 51 51 53 51 51 53 53 54 53 50 51 53 54 58 62 64 66 64 63 67 69 69 69 68
23 23 26 28 29 31 31 34 36 35 37 37 36 42 44 42 41 39 38 40 35 31 33 33 32 33 33 33 33 32 35 39 41 38 38 43 44 44 44 42 40 38 38 41 46 49 45 45 49 51 48 44 42 43 46 48 48 49 51 50 46 41 39 44 50 55 57 58 58 54 54 59 62 58 55 54 52 53 53 51 51 52 51 53 55 55 57 62 64 66 65 63 65 68 70 70 69
24 23 24 26 28 29 32 36 37 36 38 37 36 39 41 39 40 40 39 41 38 34 36 37 37 35 34 34 31 32 35 38 38 35 34 36 35 39 42 41 37 35 39 41 43 47 45 42 44 47 47 42 38 36 37 41 45 48 50 50 44 35 33 38 44 46 47 50 52 51 49 49 53 57 61 63 63 61 54 45 46 49 51 55 59 59 61 64 66 66 66 64 64 66 68 70 71
21 22 21 23 26 28 31 34 36 38 39 39 37 37 38 37 39 41 40 42 41 38 37 38 38 35 32 31 29 29 32 33 34 33 32 30 28 31 34 34 33 33 38 42 40 42 45 44 42 42 43 41 38 36 35 36 39 41 44 48 48 41 38 40 44 40 37 42 48 51 50 48 50 55 59 63 65 65 58 48 49 52 50 51 56 62 67 70 70 69 68 67 65 65 67 68 72
18 19 19 21 23 26 29 32 35 37 39 40 36 34 36 38 39 40 41 43 42 40 38 38 39 36 31 28 27 27 28 29 32 33 33 32 29 29 28 30 32 31 33 38 39 38 42 43 41 39 38 40 41 40 37 35 35 36 37 43 48 49 50 52 54 49 40 35 35 40 43 46 53 59 62 60 57 60 62 56 53 52 48 47 50 59 69 73 72 70 69 69 67 67 67 66 69
17 18 20 20 21 24 29 34 37 38 39 40 37 35 36 38 41 41 42 43 43 42 40 39 40 38 32 28 27 27 28 30 33 34 33 32 31 31 30 29 30 31 30 33 34 32 35 40 38 34 34 38 40 39 38 37 37 38 39 42 45 51 58 63 63 58 51 39 31 31 31 35 43 50 57 60 56 54 58 58 53 51 50 48 47 54 67 74 74 71 68 70 70 69 70 68 68
18 19 20 20 20 25 31 35 37 37 38 40 39 38 38 38 42 44 43 44 45 44 41 39 39 37 32 30 29 29 30 32 35 36 35 34 33 32 32 32 31 32 32 31 31 30 31 35 34 32 32 32 33 35 38 43 48 48 45 44 48 55 59 61 59 52 49 46 44 39 31 30 33 35 42 55 60 56 54 54 52 52 50 48 47 50 62 74 77 73 70 73 75 73 73 73 71
20 21 21 22 22 24 30 34 34 34 36 38 40 39 37 39 42 44 44 46 48 46 42 40 39 36 34 33 32 32 33 33 34 36 37 36 36 36 36 36 36 35 34 33 32 31 30 31 32 32 31 30 32 34 37 44 51 48 43 42 45 47 45 44 41 37 36 40 47 46 36 32 35 32 32 42 52 52 52 51 49 50 48 46 46 48 57 68 73 73 71 73 76 75 75 75 72
21 23 23 23 23 25 30 32 33 34 33 35 38 37 37 38 41 43 44 46 48 48 44 40 40 38 36 35 34 34 35 35 36 36 38 38 37 38 38 38 38 37 36 35 34 34 33 33 34 34 34 34 35 35 34 37 39 35 33 32 32 31 29 28 27 27 28 28 34 38 34 36 42 42 39 46 52 50 48 47 42 44 45 43 42 43 50 60 66 69 70 72 75 76 75 75 72
20 23 23 24 23 25 28 30 31 33 32 31 35 39 40 38 40 43 45 46 48 51 48 43 41 40 37 37 37 36 36 38 38 37 39 39 38 38 38 39 38 37 35 34 34 34 34 33 34 35 35 34 32 32 30 29 30 29 29 28 28 28 26 25 24 24 26 26 27 29 30 36 47 54 55 60 65 60 53 50 48 47 46 43 41 41 45 54 62 66 67 68 72 74 74 74 72
19 19 21 23 22 22 25 26 29 35 36 33 32 39 44 40 39 44 45 45 48 51 50 46 44 44 41 39 39 39 41 41 40 40 39 37 35 34 34 34 33 31 29 29 29 28 28 28 27 28 28 28 28 28 28 28 29 30 30 30 30 30 29 29 30 29 27 26 27 28 31 36 45 56 64 65 65 65 61 61 63 62 60 56 48 44 47 50 54 60 61 62 64 69 72 72 70
19 18 19 20 20 20 23 24 28 35 36 32 29 37 44 39 38 44 46 46 48 49 51 49 48 48 45 42 42 44 45 45 42 41 36 32 31 32 32 31 30 31 28 27 25 22 21 21 22 23 23 25 26 28 30 31 31 32 32 32 32 32 32 31 30 31 30 27 26 28 31 33 37 46 54 60 61 60 58 62 69 68 65 65 59 53 55 56 52 52 56 58 60 64 68 68 66
19 18 19 19 18 19 21 22 25 29 28 28 29 32 38 38 38 43 46 48 48 48 52 52 52 53 50 45 47 48 47 45 42 38 35 33 32 33 33 32 32 33 30 26 23 21 20 20 20 20 20 21 22 24 27 29 30 30 30 30 30 29 29 29 30 33 35 35 34 37 36 33 33 34 41 51 56 53 50 55 67 69 60 58 57 54 58 64 61 57 57 58 60 64 67 68 65
18 19 19 19 19 20 20 19 22 23 25 29 30 28 32 36 38 41 46 49 48 48 52 53 53 55 54 50 50 50 50 47 42 37 36 34 33 34 33 32 31 30 28 27 26 25 24 21 20 19 18 18 19 20 22 24 25 25 26 26 26 26 27 29 32 34 35 37 39 43 46 42 35 31 33 41 48 49 48 50 60 65 56 49 48 47 50 58 60 60 59 57 58 60 62 63 61
18 19 20 21 21 22 20 20 21 20 21 28 29 26 29 34 38 41 45 47 45 45 49 51 52 54 56 54 52 51 52 48 43 39 38 36 35 34 32 30 29 27 27 26 26 25 24 22 22 21 20 19 19 19 19 20 22 23 24 25 26 26 28 28 29 29 31 34 37 40 45 46 42 36 32 35 41 49 54 55 56 58 56 54 51 46 45 48 51 56 59 59 58 56 53 53 54
16 18 21 21 22 26 28 28 25 18 20 25 25 24 27 33 37 38 38 38 37 40 46 48 50 52 53 52 50 50 49 45 42 41 39 37 35 32 29 28 28 27 26 25 23 23 23 22 22 21 20 19 18 18 18 19 21 23 24 25 26 27 28 27 27 28 29 32 36 39 41 44 46 47 45 41 40 47 55 60 62 59 57 62 62 54 49 48 49 54 60 63 63 59 53 50 51
16 18 20 18 20 24 26 29 24 17 23 27 24 24 26 31 34 33 32 34 35 38 42 46 47 49 49 48 48 48 46 43 43 41 39 35 31 28 27 27 27 26 25 25 24 23 22 22 22 20 18 18 18 19 20 21 22 23 23 23 25 26 27 28 27 27 29 32 36 39 41 42 45 50 53 52 46 46 51 57 65 65 59 62 64 58 52 49 48 50 55 57 57 53 47 43 46
17 20 22 21 25 25 25 29 23 17 24 25 23 25 27 31 34 33 33 33 35 37 40 44 46 46 46 46 47 47 45 44 42 41 37 33 28 27 27 27 27 27 26 25 25 24 23 22 20 19 17 18 19 20 22 22 21 21 22 21 22 23 26 27 28 27 29 33 39 40 41 42 45 48 50 51 50 51 53 59 67 70 65 63 62 57 53 51 50 48 49 51 50 48 44 42 46
16 19 22 23 29 28 29 32 25 20 24 22 23 27 30 35 35 33 34 31 32 37 40 44 46 44 45 45 46 46 45 44 42 39 35 31 30 29 28 28 27 27 28 27 26 24 23 22 19 18 18 19 20 21 21 22 22 22 22 22 21 22 24 26 27 27 28 33 39 43 43 43 46 50 51 50 51 52 54 57 63 67 64 60 57 55 53 54 52 47 47 51 51 49 46 46 48
17 19 21 20 24 24 24 27 24 23 25 23 27 29 31 36 35 34 35 31 30 35 39 42 43 43 45 45 45 46 46 44 41 39 34 32 33 31 29 29 28 28 28 27 25 24 22 20 19 19 20 19 19 20 22 23 23 23 23 23 22 22 24 25 26 27 28 32 37 41 42 43 45 50 54 56 57 56 54 53 57 60 60 57 52 48 48 48 46 47 51 55 53 47 45 47 47
20 21 20 18 21 22 22 24 25 24 24 24 30 32 33 36 35 35 35 32 32 34 36 40 42 43 45 45 45 46 45 43 42 38 35 35 35 32 29 29 30 30 28 26 25 23 21 20 20 21 21 19 19 20 22 24 24 23 23 23 23 24 26 27 28 28 31 33 35 38 40 42 43 45 50 56 61 63 62 60 59 59 60 58 53 50 49 47 47 52 58 62 59 56 56 56 53
25 23 21 20 22 23 22 23 26 26 22 23 30 35 37 36 34 35 35 35 35 35 38 41 42 43 44 44 45 46 44 42 41 38 36 36 35 32 30 30 32 31 29 26 24 22 22 23 24 25 23 20 20 21 23 24 23 21 23 23 24 25 27 28 29 30 31 34 36 38 39 42 44 45 46 50 55 59 62 62 62 62 61 59 56 55 53 52 52 56 60 62 62 64 67 64 57
26 24 23 22 21 24 23 22 27 27 24 27 33 38 39 36 35 34 35 36 36 37 40 41 42 42 42 45 46 45 43 42 40 38 36 36 35 32 31 32 33 32 28 25 23 23 24 26 27 26 24 22 22 22 22 23 22 22 22 23 23 24 27 29 32 32 32 34 36 38 40 42 44 46 47 47 49 51 53 55 56 58 59 60 60 58 57 56 55 57 60 62 64 67 68 64 58
26 24 23 21 20 22 22 23 25 24 25 28 31 38 40 35 33 32 32 35 37 37 40 40 41 42 41 44 45 43 41 40 39 38 37 37 36 35 33 33 34 33 29 26 24 25 26 27 28 26 24 24 23 23 23 23 24 24 24 23 24 25 27 31 33 35 36 36 38 39 40 42 44 46 47 48 48 48 51 55 57 58 57 57 56 55 56 58 58 60 63 64 65 65 66 64 59
26 25 24 22 23 24 23 23 24 23 27 28 30 40 41 32 30 30 30 33 35 36 38 39 40 40 40 42 41 40 39 40 41 40 38 37 37 36 35 35 35 33 31 28 26 26 27 27 27 26 26 25 23 23 23 24 26 25 25 25 25 26 28 32 34 36 38 40 41 41 42 43 44 46 48 49 49 50 51 54 59 62 61 59 57 56 56 57 59 64 68 68 64 59 59 62 62
26 26 25 24 25 25 24 24 24 24 29 33 36 39 35 29 29 28 27 30 33 34 37 38 39 39 39 39 38 38 38 40 42 41 39 38 39 39 37 36 36 34 33 30 27 26 28 28 28 27 26 26 24 23 24 26 27 26 26 27 28 28 29 31 34 36 39 42 43 43 43 44 45 47 50 52 53 54 53 52 56 61 63 63 62 61 60 59 60 63 69 70 66 59 55 58 63
27 26 25 25 25 26 27 28 29 27 27 32 34 31 27 28 29 26 26 30 31 33 35 37 39 39 38 38 37 37 39 41 42 41 39 40 41 41 39 37 37 36 34 30 27 26 27 28 28 27 26 26 24 24 25 28 28 27 27 28 29 30 32 33 35 38 40 43 45 46 46 46 47 49 51 53 55 56 55 55 57 61 63 64 64 63 64 64 63 63 67 69 65 59 56 59 64